Location: Brompton
(51.4000°N, 0.5333°E)
Time: 16:40:55
(UTC+00:00)

deb Kosmos-1763 - Pass Details

Date: 11 May 2021
Orbit: 447 x 457 km, 74.0° (Epoch: 23 June)

Event Time Altitude Azimuth Distance (km) Brightness Sun altitude
Rises 20:40:12 0° 339° (NNW) 2,486 9.0 -8.6°
Reaches altitude 10° 20:42:21 10° 345° (NNW) 1,610 7.7 -8.9°
Maximum altitude 20:45:48 49° 61° (ENE) 606 4.4 -9.2°
Enters shadow 20:48:41 14° 135° (SE) 1,386 5.7 -9.6°
